Find Sphinx

NORAD ID: 63232 Int'l Des: 2025-052 Owner: VESTGO/ADIG Country: US operational
LEOCIRCULARRETROGRADESSO

实时位置

正在加载3D地球...

关于 Sphinx

正在加载描述...

即将过境

Passes for default location (London). Set your location on the main map for personalized predictions.

高度历史

Loading altitude history...

两行轨道根数

1 63232U 25052Y 26132.27821729 .00003697 00000-0 15776-3 0 9996
2 63232 97.3996 25.7846 0003944 278.5534 81.5256 15.23522144 64407
Epoch: May 12, 2026 • Age: 13 hours

当前状态

高度 501.9 km
速度 7.61 km/s
星下点 -20.40°S, 129.49°W
发射日期 Mar 15, 2025
运行时间 1.1 years
类型 other

技术详情

分类 Payload
质量 32.00 kg
干质量 32.00 kg
总质量 32.00 kg
长度 0.80 m
直径 0.40 m
跨度 0.40 m
形状 Box
制造商 ADIG
平台类型 Corvus-Micro
阶段状态 In Orbit
所有者/国家 VESTGO/ADIG/US

Most Searched